{"data":{"norad_id":47655,"epoch":"2026-05-25T04:23:23.957952Z","epoch_age_seconds":52431,"freshness":"FRESH","line1":"1 47655U 21012AM  26145.18291618  .00004895  00000+0  16935-3 0  9999","line2":"2 47655  53.1601  69.2759 0001398  84.1656 275.9504 15.31712003291809","mean_motion":15.31712003,"eccentricity":0.0001398,"inclination_deg":53.1601,"raan_deg":69.2759,"arg_perigee_deg":84.1656,"mean_anomaly_deg":275.9504,"bstar":0.00016935,"rev_number":29180,"period_min":94.012451242768,"perigee_km":469.74674713901,"apogee_km":471.66168314276,"semimajor_km":6848.8412151409,"source":"CELESTRAK","updated_at":"2026-05-25T13:38:16.562575Z"}}